Overview Statistics Trail Chart Weather Telemetry Raw packets
 

This is the latest recevied weather packets stored in our database for station/object K5KVN. If no packets are shown the sender has not sent any weather packets the latest 10 day(s).

<< 31 32 33 34 35 36 37 >>
Time Temp. Humidity Pressure Rain* Wind** Luminosity Snow
1788214987 37.78° C 33% 1016.2 hPa 0 mm - - -
1788214389 37.78° C 33% 1016.1 hPa 0 mm - - -
1788213848 37.78° C 34% 1016.1 hPa 0 mm - - -
1788213189 37.78° C 33% 1016.3 hPa 0 mm - - -
1788212587 38.33° C 33% 1016.4 hPa 0 mm - - -
1788211987 38.33° C 33% 1016.4 hPa 0 mm - - -
1788211387 38.33° C 33% 1016.5 hPa 0 mm - - -
1788210787 37.78° C 33% 1016.5 hPa 0 mm - - -
1788210189 38.33° C 34% 1016.6 hPa 0 mm - - -
1788209588 38.33° C 34% 1016.6 hPa 0 mm - - -
1788208988 38.33° C 34% 1016.8 hPa 0 mm - - -
1788208385 37.78° C 34% 1016.9 hPa 0 mm - - -
1788207787 37.78° C 35% 1017 hPa 0 mm - - -
1788207183 37.22° C 36% 1017.1 hPa 0 mm - - -
1788206586 37.78° C 36% 1017.3 hPa 0 mm - - -
1788206040 37.78° C 36% 1017.5 hPa 0 mm - - -
1788205381 37.78° C 36% 1017.7 hPa 0 mm - - -
1788204781 37.78° C 35% 1017.7 hPa 0 mm - - -
1788204241 37.78° C 36% 1017.8 hPa 0 mm - - -
1788203642 37.78° C 37% 1017.9 hPa 0 mm - - -
1788202979 37.78° C 36% 1018.1 hPa 0 mm - - -
1788202379 37.78° C 36% 1018.1 hPa 0 mm - - -
1788201840 37.78° C 36% 1018.4 hPa 0 mm - - -
1788201177 36.67° C 38% 1018.4 hPa 0 mm - - -
1788200576 36.67° C 38% 1018.7 hPa 0 mm - - -

* Rain latest hour (hover to see other rain measurements)
** Current wind speed in m/s (hover to see current wind gust speed)